Weather observations for the past three days for
Albemarle, Stanly County Airport
Imperial (Metric)
Date Time (edt) Wind (mph) Vis. (mi.) Weather Sky Cond. Temperature (ºF) Relative Humidity Wind Chill (°F) Heat Index (°F) Pressure Precipitation (in)
Air Dwpt 6 hour altimeter (in) sea level (mb) 1 hr 3 hr 6 hr
Max. Min.
15 22:25 SW 3 10.00 Thunderstorm in Vicinity CLR 80.1 73 79% 84 30.01 0.0
15 22:05 S 5 10.00 Fair CLR 81.5 72.5 74% 86 30.01 0.0
15 21:45 SW 3 10.00 Fair CLR 81.9 72.5 73% 87 30 0.0
15 21:25 S 3 10.00 Fair CLR 83.1 73 72% 89 30 0.0
15 21:05 S 5 10.00 Fair CLR 82.9 73.6 73% 89 30.01 0.0
15 20:45 S 3 10.00 Fair CLR 83.7 73.6 72% 90 30.01 0.0
15 20:25 S 5 10.00 Fair CLR 85.1 73.4 68% 92 30.01 0.0
15 20:05 S 7 10.00 Fair CLR 85.6 73.4 67% 93 30.01 0.0
15 19:45 S 8 10.00 Fair CLR 86.2 73.6 66% 94 30 0.0
15 19:25 S 6 10.00 Fair CLR 86.5 73.9 66% 95 29.99 0.0
15 19:05 SW 3 10.00 Fair CLR 86.9 74.7 67% 96 29.99 0.0
15 18:45 SW 5 10.00 Fair CLR 87.8 73.4 62% 96 29.99 0.0
15 18:25 SW 5 10.00 Fair CLR 89.6 72.7 58% 97 29.98 0.0
15 18:05 W 3 10.00 Fair CLR 89.1 72.5 58% 97 29.97 0.0
15 17:45 SW 6 10.00 Fair CLR 90.7 71.2 53% 97 29.98 0.0
15 17:25 SW 8 10.00 Fair CLR 90.7 69.8 50% 96 29.99 0.0
15 17:05 SW 6 10.00 Partly Cloudy SCT120 90.9 69.8 50% 96 29.99 0.0
15 16:45 SW 7 10.00 Mostly Cloudy SCT065 SCT085 BKN120 89.1 70.3 54% 95 29.99 0.0
15 16:25 W 6 10.00 Partly Cloudy SCT050 SCT065 SCT090 86.5 68.7 55% 90 30 0.0
15 16:05 W 6 10.00 Fair CLR 87.4 67.6 52% 91 30.01 0.0
15 15:45 SW 9 10.00 Fair CLR 89.4 66.7 47% 92 30 0.0
15 15:25 W 3 10.00 Fair CLR 93.6 64.8 39% 96 30 0.0
15 15:05 NW 3 10.00 Thunderstorm in Vicinity CLR 96.8 62.6 32% 98 30.01 0.0
15 14:45 Calm 10.00 Fair CLR 95.5 64.6 36% 98 30.02 0.0
15 14:25 S 3 10.00 Thunderstorm in Vicinity SCT060 95.4 65.7 38% 98 30.03 0.0
15 14:05 S 7 10.00 Partly Cloudy SCT060 95.2 69.4 43% 101 30.03 0.0
15 13:45 S 3 10.00 Fair CLR 95.4 71.4 46% 103 30.04 0.0
15 13:25 Calm 10.00 Fair CLR 96.1 69.6 42% 102 30.06 0.0
15 13:05 Calm 10.00 Fair CLR 95.7 70.5 44% 103 30.06 0.0
15 12:45 N 3 10.00 Fair CLR 94.1 72 49% 102 30.06 0.0
15 12:25 NW 3 10.00 Fair CLR 92.3 73.4 54% 102 30.07 0.0
15 12:05 Calm 10.00 Fair CLR 91.6 74.3 57% 102 30.07 0.0
15 11:45 Calm 10.00 Fair CLR 90.9 75.6 61% 102 30.07 0.0
15 11:25 Calm 10.00 Fair CLR 89.6 75.7 64% 101 30.08 0.0
15 11:05 S 3 10.00 Fair CLR 88 75.9 68% 99 30.08 0.0
15 10:45 Calm 10.00 Fair CLR 88 72.9 61% 96 30.09 0.0
15 10:25 Calm 10.00 Fair CLR 88 75.9 68% 99 30.09 0.0
15 10:05 Calm 10.00 Fair CLR 85.8 74.8 70% 95 30.09 0.0
15 09:45 S 3 10.00 Fair CLR 84.6 74.8 73% 93 30.1 0.0
15 09:25 Calm 10.00 Fair CLR 82.6 73.8 75% 89 30.1 0.0
15 09:05 Calm 10.00 Fair CLR 83.5 74.7 75% 91 30.1 0.0
15 08:45 W 3 10.00 Fair CLR 82.4 73.4 74% 88 30.1 0.0
15 08:25 Calm 10.00 Fair CLR 79.9 73.6 81% 84 30.1 0.0
15 08:05 Calm 10.00 Fair CLR 78.6 73.9 86% 82 30.09 0.0
15 07:45 Calm 10.00 Fair CLR 76.1 73 90% 76 30.09 0.0
15 07:25 Calm 10.00 Fair CLR 73.9 72.9 96% 30.08 0.0
15 07:05 Calm 10.00 Fair CLR 72.5 71.8 98% 30.08 0.0
15 06:45 Calm 7.00 Fair CLR 71.8 71.1 98% 30.07 0.0
15 06:25 Calm 10.00 Fair CLR 72.3 71.4 97% 30.07 0.0
15 06:05 Calm 10.00 Fair CLR 72.9 71.6 96% 30.07 0.0
15 05:45 Calm 10.00 Fair CLR 72.7 70.9 94% 30.06 0.0
15 05:25 Calm 10.00 Fair CLR 75 72.5 92% 74 30.06 0.0
15 05:05 Calm 10.00 Fair CLR 74.7 72 91% 30.06 0.0
15 04:45 Calm 10.00 Fair CLR 75.2 72.1 90% 74 30.05 0.0
15 04:25 Calm 10.00 Fair CLR 75.9 72.3 89% 76 30.05 0.0
15 04:05 Calm 10.00 Fair CLR 76.1 72.5 89% 76 30.04 0.0
15 03:45 SW 3 10.00 Fair CLR 76.1 72.1 88% 76 30.04 0.0
15 03:25 Calm 10.00 Fair CLR 76.1 72.5 89% 76 30.04 0.0
15 03:00 S 6 10.00 Fair CLR 76.1 72.1 88% 76 30.04 0.0
15 02:45 SW 3 10.00 Fair CLR 77 72.7 87% 78 30.05 0.0
15 02:25 S 5 10.00 Fair CLR 76.1 72.5 89% 76 30.06 0.0
15 02:05 SW 3 10.00 Fair CLR 76.5 72.7 88% 77 30.07 0.0
15 01:45 Calm 10.00 Fair CLR 76.1 72.9 90% 76 30.07 0.0
15 01:25 Calm 10.00 Fair CLR 76.1 72.9 90% 76 30.08 0.0
15 01:05 Calm 10.00 Fair CLR 77.7 72.9 85% 80 30.08 0.0
15 00:45 Calm 10.00 Fair CLR 76.6 73.2 89% 77 30.08 0.0
15 00:25 Calm 10.00 Fair CLR 76.3 73.6 91% 76 30.08 0.0
15 00:05 Calm 10.00 Fair CLR 76.6 74.1 92% 77 30.08 0.0
14 23:45 Calm 10.00 Fair CLR 76.1 73.8 93% 76 30.08 0.0
14 23:25 Calm 10.00 Fair CLR 77 74.7 93% 78 30.08 0.0
14 23:05 Calm 10.00 Fair CLR 77 73.4 89% 78 30.08 0.0
14 22:45 Calm 10.00 Fair CLR 78.1 74.3 88% 81 30.08 0.0
14 22:25 Calm 10.00 Fair CLR 78.4 73.9 86% 81 30.08 0.0
14 22:05 Calm 10.00 Fair CLR 78.4 75 89% 82 30.08 0.0
14 21:45 Calm 10.00 Fair CLR 79.7 74.8 85% 84 30.08 0.0
14 21:25 Calm 10.00 Fair CLR 81 74.3 80% 86 30.08 0.0
14 21:05 Calm 10.00 Partly Cloudy SCT100 81.5 76.3 84% 89 30.08 0.0
14 20:45 Calm 10.00 Fair CLR 83.3 74.3 74% 90 30.07 0.0
14 20:25 Calm 10.00 Fair CLR 85.1 74.7 71% 93 30.08 0.0
14 20:05 Calm 10.00 Mostly Cloudy BKN120 86.7 74.8 68% 96 30.07 0.0
14 19:45 Calm 10.00 Mostly Cloudy BKN110 87.1 75.2 68% 97 30.07 0.0
14 19:25 Calm 10.00 Partly Cloudy SCT100 88.3 74.8 64% 98 30.07 0.0
14 19:05 Calm 10.00 Partly Cloudy SCT100 91 72.3 54% 99 30.07 0.0
14 18:45 Calm 10.00 Fair CLR 91.8 71.1 51% 99 30.06 0.0
14 18:25 Calm 10.00 Fair CLR 92.3 70.7 49% 99 30.06 0.0
14 17:45 Calm 10.00 Fair CLR 91.8 69.8 49% 97 30.07 0.0
14 17:25 SW 5 10.00 Fair CLR 91 68.2 47% 95 30.07 0.0
14 17:05 Calm 10.00 Fair CLR 89.4 68.2 50% 93 30.08 0.0
14 16:45 Calm 10.00 Fair CLR 86.7 68.4 54% 90 30.09 0.0
14 16:25 SW 9 10.00 Fair CLR 87.3 68.9 55% 91 30.09 0.0
14 16:05 SW 10 10.00 Fair CLR 86.5 69.1 56% 91 30.09 0.0
14 15:45 SW 14 G 17 10.00 Fair CLR 85.5 67.5 55% 88 30.12 0.0
14 15:25 SW 13 10.00 Fair CLR 86.2 70.2 59% 91 30.12 0.0
14 15:05 SW 7 10.00 Partly Cloudy SCT055 SCT065 91 72.3 54% 99 30.12 0.0
14 14:45 S 6 10.00 Partly Cloudy SCT055 92.7 71.2 50% 100 30.11 0.0
14 14:25 SE 7 10.00 Fair CLR 95.2 71.4 46% 103 30.12 0.0
14 14:05 Calm 10.00 Fair CLR 94.5 66.4 40% 98 30.12 0.0
14 13:45 SW 3 10.00 Fair CLR 93.2 70.2 47% 99 30.14 0.0
14 13:25 W 6 10.00 Fair CLR 93.7 71.6 49% 101 30.15 0.0
14 13:05 SW 5 10.00 Fair CLR 92.7 71.1 49% 100 30.15 0.0
14 12:45 Calm 10.00 Fair CLR 91.9 72.3 53% 100 30.16 0.0
14 12:25 W 3 10.00 Fair CLR 91.8 72.9 54% 100 30.17 0.0
14 12:05 SW 5 10.00 Fair CLR 91.2 71.8 53% 99 30.17 0.0
14 11:45 W 3 10.00 Fair CLR 90.5 74.7 60% 101 30.17 0.0
14 11:25 W 3 10.00 Fair CLR 89.4 73.2 59% 98 30.18 0.0
14 11:05 SW 8 10.00 Fair CLR 89.4 74.8 62% 100 30.17 0.0
14 10:45 SW 3 10.00 Fair CLR 88.3 74.3 63% 97 30.18 0.0
14 10:25 SW 8 10.00 Fair CLR 88.3 75 65% 98 30.18 0.0
14 10:05 Calm 10.00 Fair CLR 86.5 74.7 68% 95 30.18 0.0
14 09:45 Calm 10.00 Fair CLR 85.3 74.5 70% 93 30.18 0.0
14 09:25 W 5 10.00 Fair CLR 84 73.8 71% 91 30.18 0.0
14 09:05 W 3 10.00 Fair CLR 82.8 73 73% 89 30.18 0.0
14 08:45 Calm 10.00 Fair CLR 81.7 73.2 76% 87 30.19 0.0
14 08:25 W 3 10.00 Fair CLR 80.1 73.4 80% 84 30.19 0.0
14 08:05 Calm 10.00 Fair CLR 77.7 74.1 89% 80 30.18 0.0
14 07:45 Calm 10.00 Fair CLR 75.2 73.6 95% 74 30.18 0.0
14 07:25 Calm 10.00 Fair CLR 73.4 72.5 97% 30.17 0.0
14 07:05 Calm 10.00 Fair CLR 71.4 70.7 98% 30.17 0.0
14 06:45 Calm 7.00 Fair CLR 70.7 70 98% 30.17 0.0
14 06:25 Calm 10.00 Fair CLR 71.2 70.7 98% 30.16 0.0
14 06:05 Calm 10.00 Fair CLR 71.2 70.7 98% 30.16 0.0
14 05:45 Calm 10.00 Fair CLR 71.4 70.7 98% 30.16 0.0
14 05:25 Calm 10.00 Fair CLR 71.6 70.9 98% 30.16 0.0
14 05:05 Calm 10.00 Fair CLR 71.8 71.1 98% 30.16 0.0
14 04:45 Calm 10.00 Fair CLR 72 71.1 97% 30.15 0.0
14 04:25 Calm 10.00 Fair CLR 72.1 71.2 97% 30.15 0.0
14 04:05 Calm 10.00 Fair CLR 72.9 71.8 96% 30.16 0.0
14 03:45 Calm 10.00 Fair CLR 72.7 71.8 97% 30.16 0.0
14 03:20 Calm 10.00 Fair CLR 73 72 96% 30.16 0.0
14 03:05 Calm 10.00 Fair CLR 73 72 96% 30.17 0.0
14 02:45 Calm 10.00 Fair CLR 72.7 71.8 97% 30.17 0.0
14 02:25 Calm 10.00 Fair CLR 72.7 71.8 97% 30.18 0.0
14 02:05 Calm 10.00 Fair CLR 72.7 71.4 96% 30.18 0.0
14 01:45 Calm 10.00 Fair CLR 73.6 72.1 95% 30.18 0.0
14 01:25 Calm 10.00 Fair CLR 73.8 72.3 95% 30.18 0.0
14 01:05 Calm 10.00 Fair CLR 73.8 72.5 96% 30.18 0.0
14 00:45 Calm 10.00 Fair CLR 74.3 72.5 94% 30.18 0.0
14 00:25 Calm 10.00 Fair CLR 74.7 72.7 94% 30.18 0.0
14 00:05 Calm 10.00 Fair CLR 74.3 72.7 95% 30.19 0.0
13 23:45 Calm 10.00 Fair CLR 75 73 94% 73 30.19 0.0
13 23:25 Calm 10.00 Fair CLR 75.2 73 93% 74 30.19 0.0
13 23:05 Calm 10.00 Fair CLR 75.4 73.4 94% 74 30.19 0.0
13 22:45 Calm 10.00 Fair CLR 76.5 72.5 88% 77 30.18 0.0
13 22:25 Calm 10.00 Fair CLR 76.5 73.9 92% 77 30.19 0.0
13 22:05 Calm 10.00 Fair CLR 76.8 72.7 87% 78 30.18 0.0
13 21:45 Calm 10.00 Fair CLR 77.5 73.4 87% 79 30.18 0.0
13 21:25 Calm 10.00 Fair CLR 78.6 73.2 84% 82 30.18 0.0
13 21:05 Calm 10.00 Fair CLR 79.5 73.9 83% 84 30.18 0.0
13 20:45 Calm 10.00 Fair CLR 81 73.4 78% 86 30.17 0.0
13 20:25 Calm 10.00 Fair CLR 81.7 74.3 78% 88 30.18 0.0
13 20:05 Calm 10.00 Fair CLR 83.3 73.2 72% 89 30.18 0.0
13 19:45 Calm 10.00 Fair CLR 85.1 72.9 67% 92 30.18 0.0
13 19:25 Calm 10.00 Fair CLR 87.1 72.9 63% 94 30.18 0.0
13 19:05 SW 3 10.00 Fair CLR 90.5 69.1 49% 95 30.17 0.0
13 18:45 Calm 10.00 Fair CLR 90.7 70 51% 96 30.17 0.0
13 18:25 Calm 10.00 Fair CLR 90.9 69.1 49% 96 30.17 0.0
13 18:05 SW 5 10.00 Fair CLR 91.2 69.6 49% 97 30.17 0.0
13 17:45 W 3 10.00 Fair CLR 91.4 69.8 49% 97 30.17 0.0
13 17:25 Calm 10.00 Fair CLR 91.4 69.3 48% 96 30.17 0.0
13 17:05 W 3 10.00 Fair CLR 92.1 70 48% 98 30.17 0.0
13 16:45 W 3 10.00 Fair CLR 91.4 70.2 50% 97 30.17 0.0
13 16:25 N 3 10.00 Fair CLR 90.9 69.8 50% 96 30.17 0.0
13 16:00 W 3 10.00 Fair CLR 91.2 70.9 51% 98 30.18 0.0
13 15:45 Calm 10.00 Partly Cloudy SCT040 91.2 69.3 49% 96 30.18 0.0
13 15:25 W 7 10.00 Partly Cloudy SCT040 91 71.8 53% 98 30.19 0.0
13 15:05 Calm 10.00 Partly Cloudy SCT040 89.8 70.9 54% 96 30.19 0.0
13 14:45 Calm 10.00 Partly Cloudy SCT042 89.6 71.4 55% 96 30.19 0.0
13 14:25 Calm 10.00 Partly Cloudy SCT040 88.7 71.6 57% 95 30.2 0.0
13 14:05 Calm 10.00 Partly Cloudy SCT038 88.9 72 57% 96 30.21 0.0
13 13:45 Calm 10.00 Partly Cloudy SCT033 88 72 59% 95 30.21 0.0
13 13:25 NW 3 10.00 Partly Cloudy SCT033 86.5 71.6 61% 93 30.22 0.0
13 13:05 W 6 10.00 Fair CLR 86 71.8 63% 92 30.22 0.0
13 12:40 NW 3 10.00 Fair CLR 85.5 71.1 62% 91 30.23 0.0
13 12:25 Calm 10.00 Partly Cloudy SCT029 85.1 71.2 63% 91 30.24 0.0
13 12:05 Calm 10.00 Mostly Cloudy BKN031 BKN035 84.4 71.6 66% 90 30.24 0.0
13 11:45 NE 5 10.00 Partly Cloudy SCT029 84 71.8 67% 89 30.24 0.0
13 11:25 Calm 10.00 Partly Cloudy SCT022 82.8 70.3 66% 87 30.24 0.0
13 11:05 E 3 10.00 Partly Cloudy SCT020 82.4 71.2 69% 87 30.24 0.0
13 10:45 E 6 10.00 Mostly Cloudy SCT018 BKN023 81.7 72.7 74% 87 30.24 0.0
13 10:25 NE 6 10.00 Mostly Cloudy SCT016 BKN021 79.7 73 80% 84 30.25 0.0
13 10:05 N 3 10.00 Mostly Cloudy SCT012 BKN021 77.5 72.5 85% 79 30.25 0.0
13 09:45 N 5 10.00 Overcast OVC012 79 73 82% 82 30.25 0.0
13 09:25 NE 3 10.00 Overcast OVC010 77.5 72.9 86% 79 30.25 0.0
13 09:05 N 5 10.00 Overcast OVC008 76.5 73.4 90% 77 30.24 0.0
13 08:45 N 3 10.00 Overcast OVC008 75.4 72.9 92% 75 30.24 0.0
13 08:25 N 3 10.00 Overcast OVC008 74.8 73 94% 30.24 0.0
13 08:05 N 3 10.00 Mostly Cloudy BKN008 BKN028 73.9 72.9 96% 30.23 0.0
13 07:45 N 6 10.00 Mostly Cloudy BKN008 BKN028 73.4 72.7 98% 30.23 0.0
13 07:20 Calm 10.00 Thunderstorm in Vicinity OVC006 72.9 72.5 99% 30.22 0.0
13 07:05 Calm 10.00 Overcast OVC008 72.3 72 99% 30.22 0.0
13 06:45 Calm 10.00 Overcast BKN008 OVC023 71.6 71.1 98% 30.21 0.0
13 06:25 Calm 1.25 Fog/Mist BKN006 OVC023 71.2 70.7 98% 30.2 0.0
13 06:05 Calm 7.00 Partly Cloudy SCT005 SCT023 71.8 71.2 98% 30.2 0.0
13 05:45 Calm 10.00 Mostly Cloudy BKN005 BKN023 72.7 72.1 98% 30.19 0.0 0.01
13 05:25 Calm 10.00 Mostly Cloudy SCT003 BKN010 73 72.5 98% 30.19 0.0 0.01
13 05:05 Calm 10.00 Overcast SCT004 OVC008 73.4 72.7 98% 30.18 0.0
13 04:45 Calm 10.00 Overcast BKN004 OVC008 73.4 72.9 98% 30.18 0.0
13 04:25 N 5 10.00 Overcast BKN004 OVC013 73.4 72.9 98% 30.17 0.0
13 04:05 Calm 10.00 Overcast SCT006 OVC013 73.6 73.4 99% 30.17 0.0
13 03:45 Calm 10.00 Overcast SCT003 BKN007 OVC011 73.6 73.4 99% 30.18 0.0
13 03:25 Calm 7.00 Overcast BKN003 OVC009 73.4 73 99% 30.18 0.0
13 03:05 Calm 10.00 Overcast OVC003 72.7 72.5 99% 30.18 0.0
13 02:45 Calm 10.00 Overcast SCT003 OVC009 72.3 72 99% 30.17 0.0
13 02:25 Calm 10.00 Overcast OVC009 73 72.5 98% 30.18 0.0
13 02:05 Calm 10.00 Overcast OVC009 73.4 72.9 98% 30.19 0.0
13 01:45 Calm 10.00 Overcast OVC009 72.9 72.5 99% 30.19 0.0
13 01:25 Calm 10.00 Overcast OVC007 72.5 72.1 99% 30.19 0.0
13 01:05 Calm 10.00 Overcast OVC009 71.8 71.4 99% 30.19 0.0
13 00:45 Calm 10.00 Overcast OVC009 71.1 70.7 99% 30.2 0.0
13 00:25 Calm 10.00 Mostly Cloudy BKN007 71.8 71.4 99% 30.2 0.0
13 00:05 Calm 10.00 Mostly Cloudy BKN007 72.1 71.8 99% 30.19 0.0
12 23:45 Calm 10.00 Mostly Cloudy BKN007 72.1 71.8 99% 30.19 0.0
12 23:25 Calm 10.00 Partly Cloudy SCT007 72 71.6 99% 30.19 0.0
12 23:05 Calm 10.00 Fair CLR 72 71.6 99% 30.19 0.0
12 22:45 Calm 10.00 Fair CLR 72.3 71.8 98% 30.19 0.0
Date Time (edt) Wind (mph) Vis. (mi.) Weather Sky Cond. Air Dwpt Max. Min. Relative Humidity Wind Chill (°F) Heat Index (°F) altimeter (in) sea level (mb) 1 hr 3 hr 6 hr
6 hour
Temperature (ºF) Pressure Precipitation (in)